Regional Weather Roundup
Issued by NWS Grand Forks, ND

Home | Current Version | Previous Version | Text Only | Print | Product List | Glossary Off
Versions: 1 2 3 4 5 6 7 8 9 10 11 12 13 14 15 16 17 18 19 20 21 22 23 24 25 26 27 28 29 30 31 32 33 34 35 36 37 38 39 40 41 42 43 44 45 46 47 48 49 50

000
ASUS43 KFGF 240731
RWRFGF
PRAIRIE TO PINES  WEATHER ROUNDUP
NATIONAL WEATHER SERVICE EASTERN NORTH DAKOTA/GRAND FORKS ND
200 AM CDT FRI OCT 24 2014

 **SATELLITE DATA USED TO AUGMENT SKY COVER AT AUTOMATED STATIONS**
 *****  WEATHER ACROSS EASTERN NORTH DAKOTA  *****

CITY           SKY/WX    TMP DP  RH WIND       PRES   REMARKS
GRAND FORKS    PTCLDY    46  37  71 S8        29.75S
GRAND FRKS AFB CLEAR     54  37  53 SW9       29.75S
GRAND FRKS NWS   N/A     46 N/A N/A SW6         N/A
DEVILS LAKE    MOCLDY    52  36  54 SW7       29.75S
FARGO          MOCLDY    51  42  71 S9        29.81R
WAHPETON ARPT  PTSUNNY   45  37  76 SE7       29.83F
$$

 ***** WEATHER ACROSS CENTRAL AND WESTERN NORTH DAKOTA  *****

CITY           SKY/WX    TMP DP  RH WIND       PRES   REMARKS
BISMARCK       CLOUDY    50  32  50 SW6       29.82S
MINOT          CLOUDY    52  33  48 SW10      29.74F
JAMESTOWN      CLOUDY    50  37  61 SW7       29.79F
MINOT AFB      CLOUDY    51  35  55 W12       29.73F
GARRISON         N/A     46  39  76 SW6       29.78F
WILLISTON      CLOUDY    42  34  73 CALM      29.79R
DICKINSON      MOCLDY    46  32  58 W7        29.81F
HETTINGER      MOCLDY    43  28  55 VRB5      29.87F
$$

 *****  OTHER AIRPORT OBSERVATIONS IN OUR AREA  *****

CITY           SKY/WX    TMP DP  RH WIND       PRES   REMARKS
WALHALLA         N/A     54  36  50 W3        29.71S
GRAFTON AIRPOR FAIR      43  37  81 SW9       29.72S
VALLEY CITY AR FAIR      46  39  76 S3        29.80S
CANDO          FAIR      41  36  81 SW6       29.74F
CAVALIER APRT  FAIR      50  39  66 SW3       29.71S
GWINNER        SUNNY     50  45  81 SW9       29.84S
SHEYENNE NWR     N/A     43  41  92 SW3       29.95S
ROLLA          FAIR      46  36  66 SW8       29.74S
 ***** THE ABOVE OBSERVATIONS ARE NON NWS ARE NOT QUALITY
       CONTROLLED AND MAY MIS-REPORT RAIN FOR SNOW...
$$

  *****  WEATHER ACROSS NORTHERN MINNESOTA  *****

CITY           SKY/WX    TMP DP  RH WIND       PRES   REMARKS
FLAG ISLAND    CLOUDY    50  46  87 S9        29.73S
WARROAD        CLOUDY    52  43  71 S3        29.74F
ROSEAU         MOCLDY    52  45  76 S9        29.73F
HALLOCK        MOCLDY    46  37  71 S8        29.72R
THF RVR FALLS  MOCLDY    50  39  66 S10       29.77F
BAUDETTE       CLOUDY    51  40  65 S6        29.77R
WASKISH        CLOUDY    54  41  62 CALM      29.79S
CROOKSTON      MOCLDY    50  43  76 SW13      29.77S
STEPHEN NDAWN    N/A     50  39  66 S12         N/A
GREENBUSH NDAW   N/A     50  41  71 S10         N/A
$$
  *****  WEATHER ACROSS CENTRAL AND WEST MINNESOTA  *****

CITY           SKY/WX    TMP DP  RH WIND       PRES   REMARKS
FOSSTON        MOCLDY    50  43  76 S12       29.81F
BEMIDJI        CLOUDY    55  42  62 S6        29.82S
PARK RAPIDS    MOCLDY    51  41  68 S6        29.85F
ELBOW LAKE     FAIR      47  42  82 SE7       29.85S
WADENA         MOCLDY    48  43  81 S7        29.86S
DETROIT LAKES  MOCLDY    54  45  71 S3        29.85S
MOORHEAD       MOCLDY    46  45  93 S7        29.83S
FERGUS FALLS   PTCLDY    48  39  71 SE8       29.86S
MORRIS MN      CLEAR     46  43  87 SE8       29.85F
STAPLES        CLOUDY    46  39  76 S5        29.88S
$$
  *****  WEATHER ELSEWHERE ACROSS MINNESOTA  *****

CITY           SKY/WX    TMP DP  RH WIND       PRES   REMARKS
DULUTH         FOG       49  46  90 S9        29.91F VSB 3/4
INTRNTL FALLS  MOCLDY    50  40  68 S5        29.79F
ELY            MOCLDY    46  45  93 CALM      29.87F
CLOQUET        CLOUDY    48  46  93 S9        29.92S FOG
WHEATON        PTCLDY    45  39  81 SE10      29.85F
BRAINERD       CLOUDY    47  39  74 S6        29.89F
HIBBING        FOG       37  35  92 CALM      29.88F VSB 1/2
ALEXANDRIA     PTCLDY    52  43  71 S7        29.89S
SAINT CLOUD    CLOUDY    47  40  76 SE6       29.91F
MINNEAPOLIS    MOCLDY    48  46  93 E7        29.96F
$$

  *****  WEATHER ACROSS SOUTH DAKOTA  *****

CITY           SKY/WX    TMP DP  RH WIND       PRES   REMARKS
SIOUX FALLS    MOCLDY    55  49  80 S12       29.88F
BROOKINGS      NOT AVBL
WATERTOWN      MOCLDY    47  43  86 S7        29.85F
HURON          MOCLDY    50  46  86 SE6       29.83F
SISSETON         N/A     49  44  83 SE6       29.83S
ABERDEEN       CLOUDY    39  38  96 CALM      29.84S
MITCHELL       MOCLDY    47  46  97 SE3       29.84F
PIERRE         CLOUDY    44  36  73 W10       29.86R
MOBRIDGE       CLOUDY    45  40  82 CALM      29.83S
RAPID CITY     CLOUDY    47  33  58 W6        29.92S
$$

  *****  SOME WEATHER IN NEARBY STATES *****

CITY           SKY/WX    TMP DP  RH WIND       PRES   REMARKS
GLASGOW MT     CLOUDY    50  39  66 CALM      29.78R
GREAT FALLS MT PTCLDY    49  37  63 SW18G26   29.86F
CHEYENNE WY    CLOUDY    52  30  43 W13       30.15R
SCOTTSBLUFF NE MOCLDY    46  36  68 N7        30.01F
OMAHA NE       PTCLDY    55  50  83 SE10      30.00S
DES MOINES IA  FOG       52  51  97 S5        30.03S VSB 1/8
DAVENPORT IA   FOG       42  41  96 CALM      30.05S VSB 1/4
CHICAGO IL     CLOUDY    54  44  69 SW5       30.05R
EAU CLAIRE WI  FOG       49  48  97 S6        30.01S VSB 1
LA CROSSE WI   CLOUDY    51  50  96 S5        30.04R FOG
$$

  *****  SOME NATIONAL WEATHER *****

CITY           SKY/WX    TMP DP  RH WIND       PRES   REMARKS
LA GUARDIA NY  CLOUDY    52  44  74 NW12      29.76S
RALEIGH NC     CLOUDY    49  41  74 NE5       30.00S
ATLANTA GA     CLOUDY    51  45  79 NW7       30.03S
NEW ORLEANS LA PTCLDY    63  49  60 NE9       30.07S
OKLAHOMA CITY  PTCLDY    60  56  86 S5        30.09S
ALBUQUERQUE NM CLEAR     61  36  39 CALM      30.29R
SALT LAKE CITY MOCLDY    53  41  63 NW8       30.09R
LOS ANGELES CA CLEAR     68  66  93 CALM      29.96R
BOISE ID       CLOUDY    53  48  83 CALM      30.08S
SEATTLE WA     CLOUDY    50  44  80 SE7       30.01R
$$

*** WEATHER ACROSS MANITOBA...SASKATCHEWAN AND ONTARIO ***
                ***ONTARIO***

CITY           SKY/WX    TMP DP  RH WIND       PRES   REMARKS
GERALDTON      DRZL/FOG  45  45 100 SW5       29.89F VSB 3/4
THUNDER BAY    CLOUDY    48  45  87 VRB2      29.93S
SIOUX LOOKOUT  PTCLDY    46  45  93 S7        29.77F
TORONTO        CLEAR     41  36  81 NW10      30.04S
BIG TROUT LK   CLOUDY    48  45  87 S7        29.71S
PICKLE LAKE    NOT AVBL
DRYDEN         PTCLDY    48  39  71 S9        29.76F
KENORA         MOCLDY    50  39  66 S8        29.74F
$$
                *** MANITOBA***

CITY           SKY/WX    TMP DP  RH WIND       PRES   REMARKS
BRANDON        PTCLDY    39  34  81 W7        29.70R
DAUPHIN        PTCLDY    55  41  58 W15G22    29.61S
ISLAND LAKE    CLOUDY    48  46  93 S5        29.62F
PILOT MOUND      N/A     43  32  65 SW6         N/A
THE PAS        FOG       45  45 100 SE10      29.51F VSB 3/8
THOMPSON       DRZL/FOG  37  37 100 CALM      29.57F VSB 1
WINNIPEG       PTCLDY    52  37  58 S13       29.69S
LYNN LAKE      FOG       36  36 100 E8        29.53F VSB 3/4
CHURCHILL      LGT RAIN  37  36  93 E24G36    29.67F
GILLAM         FOG       39  39 100 SW6       29.58S VSB 1/2
$$
                ***SASKATCHEWAN***

CITY           SKY/WX    TMP DP  RH WIND       PRES   REMARKS
ESTEVAN        MOCLDY    45  37  76 SW9       29.73S
KINDERSLEY     PTCLDY    50  39  66 SW14      29.58R
LLOYDMINSTER   CLEAR     39  28  65 W15       29.55
PRINCE ALBERT  MOCLDY    36  36 100 SW3       29.50S
REGINA         PTCLDY    41  37  87 SW9       29.67S
YORKTON        CLEAR     48  39  71 SW12      29.61F
N. BATTLEFORD  PTCLDY    39  32  75 W5        29.57R
LA RONGE       PTCLDY    45  43  93 S7        29.45S
SASKATOON      MOCLDY    45  37  76 NW3       29.56S
SWIFT CURRENT  MOCLDY    55  37  50 SW22G29   29.66R
$$
NOTE: THESE ARE AUTOMATED STATIONS WITH LIMITED QUALITY CONTROL
      "FAIR" INDICATES FEW OR NO CLOUDS BELOW 12,000 FEET WITH NO
      SIGNIFICANT WEATHER AND/OR OBSTRUCTIONS TO VISIBILITY.
      SKY/WX - SKY CONDITION AND SIGNIFICANT WEATHER.
      TMP - AIR TEMPERATURE.    DP   - DEWPOINT TEMPERATURE.
      RH  - RELATIVE HUMIDITY.  PRES - PRESSURE.
      HX  - HEAT INDEX.         WCI  - WIND CHILL INDEX.
$



USA.gov is the U.S. government's official web portal to all federal, state and local government web resources and services.